Location: North Wootton
(52.7833°N, 0.4333°E)
Time: 00:10:58
(UTC+00:00)

Daily predictions for brighter satellites

Satellite Brightness Start Highest point End
(mag) Time Altitude Azimuth Time Altitude Azimuth Time Altitude Azimuth
OPS 8737 4.4 00:00:18 10° NW 00:03:23 64° NE 00:06:00 13° ESE
Cosmos 1328 4.1 00:02:26 24° SSE 00:04:17 47° E 00:07:46 10° NNE
Cosmos 2082 Rocket 4.4 00:01:49 10° NNW 00:06:29 25° NE 00:11:09 10° E
PSLV R/B 3.9 00:08:36 10° N 00:12:49 62° WNW 00:15:55 18° SSW
Cosmos 2278 Rocket 4.4 00:12:56 10° ESE 00:15:08 12° E 00:17:21 10° ENE
USA 229 DEB 4.3 00:10:34 10° NW 00:17:46 69° NE 00:25:44 10° ESE
Cosmos 1300 Rocket 3.7 00:13:29 10° NNW 00:17:51 62° W 00:20:33 22° S
USA 229 4.3 00:10:41 10° NW 00:17:52 68° NE 00:25:49 10° ESE
SJ 16-02 1.5 00:15:31 23° S 00:18:05 59° ESE 00:22:22 10° NNE
PSLV R/B 3.8 00:15:13 10° NNE 00:19:09 78° WNW 00:21:35 22° SSW
CZ-2C R/B 3.2 00:14:32 11° SE 00:19:24 54° ENE 00:24:36 10° N
Cosmos 1943 Rocket 4.4 00:19:45 10° ESE 00:21:40 12° E 00:23:37 10° ENE
NOSS 2-1 (C) 3.7 00:18:59 10° WNW 00:22:18 41° SW 00:24:43 21° S
Cosmos 371 Rocket 4.3 00:19:30 18° SSE 00:22:26 35° ESE 00:26:49 10° NE
USA 307 2.8 00:20:42 20° SW 00:23:05 50° SSE 00:26:57 10° ENE
NOSS 2-1 (E) 3.7 00:22:37 10° WNW 00:26:00 43° SW 00:28:37 20° SSE
Cosmos 676 Rocket 4.0 00:24:48 19° SSW 00:28:41 89° WNW 00:33:58 10° NNE
Aureole 3 4.5 00:25:37 20° SSW 00:29:54 87° WNW 00:36:35 10° N
Cosmos 1782 Rocket 4.3 00:34:07 10° NNW 00:38:16 41° W 00:40:56 20° SSW
Cosmos 1844 Rocket 3.4 00:36:37 10° SW 00:42:08 52° NW 00:47:42 10° NNE
Cosmos 1378 Rocket 4.3 00:40:25 17° SSE 00:43:31 44° E 00:47:42 10° NNE
USA 234 3.5 00:39:26 10° ENE 00:45:48 51° SE 00:51:09 15° SSW
Cosmos 1844 4.3 00:41:44 10° SW 00:47:09 53° NW 00:52:37 10° NNE
Cosmos 1340 Rocket 3.4 00:45:00 10° N 00:48:46 51° ENE 00:52:07 13° SSE
EO 1 Delta rocket 4.5 00:43:14 14° SSE 00:49:03 85° ENE 00:54:22 10° N
USA 59 Rocket 1.1 00:49:38 10° WNW 00:52:42 24° SW 00:54:17 20° SSW
Cosmos 1606 3.0 00:51:32 10° NNW 00:54:24 36° W 00:55:43 24° SW
ATLAS 3B R/B 3.0 00:53:06 10° NW 01:01:01 77° SW 01:08:38 10° SE
Cosmos 304 Rocket 3.8 01:00:52 19° SSW 01:04:15 74° ESE 01:09:02 10° NNE
SOZ 4.2 01:06:57 24° SW 01:07:57 50° SSE 01:10:25 10° E
H-2A R/B 2.4 01:06:40 20° S 01:08:56 53° WSW 01:12:31 10° NNW
Cosmos 2279 Rocket 4.3 01:04:15 10° NNW 01:10:15 54° W 01:15:04 16° SSW
Cosmos 2242 Rocket 3.9 01:09:13 18° SSW 01:12:25 59° WNW 01:16:50 10° N
Landsat 4 3.6 01:11:50 24° SSW 01:13:12 41° W 01:16:00 10° NNW
H-2A R/B 3.9 01:10:19 10° NE 01:13:23 21° E 01:16:26 10° SE
Cosmos 1869 3.0 01:12:01 10° NNW 01:15:45 85° W 01:18:36 16° S
Cosmos 1814 Rocket 4.0 01:10:43 10° NNW 01:16:03 71° WSW 01:21:15 11° SSE
USA 305 1.4 01:13:35 10° WNW 01:16:23 72° N 01:18:14 10° E
Cosmos 1850 Rocket 4.0 01:12:44 17° SSW 01:16:46 89° WNW 01:21:58 10° NNE
IDEFIX/ARIANE 42P 3.5 01:12:26 10° NNE 01:17:25 42° E 01:22:10 11° SSE
SL-24 R/B - RUBIN 2 3.8 01:12:45 10° NW 01:17:40 55° SW 01:22:05 10° SSE
SeaSat 1 4.1 01:17:10 13° SW 01:19:22 17° WSW 01:22:33 10° WNW
ATLAS 2AS CENTAUR R/B 2.8 01:12:28 11° SW 01:19:26 86° NW 01:26:23 10° NE
Cosmos 1455 Rocket 4.3 01:15:40 10° N 01:19:47 39° ENE 01:23:51 10° SE
Cosmos 1833 Rocket 3.0 01:15:35 10° NW 01:20:59 48° WSW 01:25:45 13° S
Cosmos 2221 Rocket 3.9 01:21:46 15° S 01:25:22 62° E 01:29:45 10° NNE
Spot 2 4.4 01:22:26 14° S 01:26:25 62° WSW 01:30:56 10° NNW
Cosmos 1812 3.6 01:24:01 10° N 01:27:00 35° ENE 01:29:57 10° SE
MSX 4.5 01:23:24 10° NNE 01:28:59 49° E 01:34:26 10° S
NPP 4.4 01:27:38 10° NNE 01:32:53 48° E 01:38:05 10° S
CZ-2C R/B 3.3 01:28:37 10° NNE 01:34:08 71° WNW 01:38:34 14° SSW
Sich 1 Rocket 3.6 01:31:13 10° NNW 01:35:39 69° W 01:39:38 13° S
SL-4 R/B 1.8 01:36:31 10° W 01:40:32 75° S 01:44:21 10° E
Cosmos 1674 Rocket 3.6 01:38:17 16° SSW 01:41:44 70° WNW 01:46:05 10° N
COSMOS 2406 4.1 01:36:07 10° NNW 01:41:46 53° NE 01:47:23 10° SE
Cosmos 332 Rocket 4.2 01:37:42 14° S 01:41:49 56° ESE 01:46:33 10° NNE
Cosmos 968 Rocket 3.9 01:37:59 13° SW 01:42:35 57° WNW 01:47:47 10° NNE
Resurs 1-4 Rocket 3.3 01:43:38 10° NNE 01:48:28 36° E 01:53:17 10° SSE
Cosmos 2082 Rocket 2.3 01:45:39 10° NNW 01:51:23 85° ENE 01:57:07 10° SSE
USA 307 2.8 01:49:12 10° W 01:53:09 79° N 01:57:03 10° ENE
SJ 16-02 3.2 01:53:10 10° WSW 01:56:37 23° NW 02:00:06 10° N
Cosmos 2278 Rocket 2.5 01:52:55 12° SSW 01:58:05 64° ESE 02:03:44 10° NE
Cosmos 2098 Rocket 3.6 01:55:11 10° N 01:59:04 46° ENE 02:02:20 10° SSE
Timation 2 Rocket 3.9 01:53:46 12° SW 01:59:18 85° WNW 02:05:21 10° NNE
CZ-2C R/B 3.7 01:55:59 12° SSW 01:59:56 28° W 02:04:32 10° NNW
Okean 2 Rocket 3.9 01:57:15 10° NNW 02:01:22 36° W 02:05:04 12° SSW
Cosmos 371 Rocket 4.2 01:58:03 10° SW 02:02:37 41° NW 02:07:13 10° NNE
CZ-2D R/B 3.1 01:57:41 10° NNE 02:02:52 43° E 02:07:56 10° S
Cosmos 1943 Rocket 2.4 01:59:08 11° SSW 02:04:17 64° ESE 02:09:46 10° NE
ALOS 3.9 02:01:11 10° NNE 02:05:11 29° E 02:09:09 10° SSE
SL-16 R/B 3.9 02:01:17 10° SE 02:07:03 42° ENE 02:12:53 10° N
USA 229 DEB 4.3 02:01:40 10° NW 02:08:40 46° WSW 02:16:15 10° S
USA 229 4.3 02:01:46 10° NW 02:08:46 46° WSW 02:16:22 10° S
Okean 1 Rocket 3.9 02:07:13 10° NNW 02:11:20 37° W 02:15:20 10° SSW
Cosmos 1025 Rocket 3.4 02:13:48 11° SSW 02:17:43 49° WNW 02:21:53 10° N
Cosmos 1553 Rocket 4.0 02:15:32 10° N 02:21:38 85° E 02:27:45 10° S
USA 81 4.5 02:21:23 10° SSW 02:26:30 51° WNW 02:31:40 10° N
Cosmos 1570 Rocket 4.2 02:23:45 10° NNW 02:28:59 56° WSW 02:34:11 10° S
USA 234 3.4 02:22:33 10° ENE 02:29:06 80° NNW 02:35:40 10° WSW
Geosat FO 4.1 02:27:24 10° SSE 02:30:25 80° WSW 02:33:31 10° NW
Cosmos 2084 3.4 02:27:42 10° NW 02:31:44 78° NE 02:35:38 10° SE
Cosmos 1092 Rocket 4.2 02:26:39 10° SSW 02:32:54 68° WNW 02:39:15 10° N
ADEOS II 2.7 02:28:26 10° NNE 02:33:35 54° E 02:38:42 10° S
Cosmos 1975 Rocket 3.1 02:30:04 10° S 02:34:31 88° E 02:38:59 10° NNE
Cosmos 2369 Rocket 4.3 02:31:11 10° SSE 02:35:22 21° E 02:39:32 10° NE
Cosmos 292 Rocket 3.9 02:30:43 10° SSW 02:35:30 75° ESE 02:40:20 10° NNE
Cosmos 2208 Rocket 4.0 02:31:47 10° NNW 02:36:54 63° WSW 02:42:00 10° S
Cosmos 773 Rocket 4.0 02:35:36 10° NNW 02:40:47 72° WSW 02:45:59 10° SSE
COSMOS 2441 4.5 02:39:30 10° NNE 02:44:21 74° WNW 02:49:11 10° SSW
